Regional Weather Roundup
Issued by NWS

Home | Current Version | Previous Version | Text Only | Print | Product List | Glossary On
Versions: 1 2 3 4 5 6 7 8 9 10 11 12 13 14 15 16 17 18 19 20 21 22 23 24 25 26 27 28 29 30 31 32 33 34 35 36 37 38 39 40 41 42 43 44 45 46 47 48 49 50
309
ASUS43 KMKX 210210
RWRWI

WISCONSIN REGIONAL WEATHER ROUNDUP
NATIONAL WEATHER SERVICE MILWAUKEE/SULLIVAN WI
800 PM CST FRI JAN 20 2017

NOTE: "FAIR" INDICATES FEW OR NO CLOUDS BELOW 12,000 FEET WITH NO
SIGNIFICANT WEATHER AND/OR OBSTRUCTIONS TO VISIBILITY.

WIZ001-002-006>008-014>016-023>028-210300-
NORTHWEST WISCONSIN

CITY           SKY/WX    TMP DP  RH WIND       PRES   REMARKS
SUPERIOR ARPT  CLOUDY    34  34 100 E7        29.60F FOG     WCI  28
ASHLAND        MIX PCPN  36  35  96 E6        29.62F WCI  31
HAYWARD        CLOUDY    36  34  92 S3        29.58F FOG
SIREN          CLOUDY    35  34  98 CALM      29.57F FOG
CUMBERLAND     FOG       32  32 100 SE7       29.57S VSB 1/2 WCI  26
RICE LAKE      FOG       34  34  99 SE8       29.60S VSB 3/4 WCI  28
CHETEK         CLOUDY    34  34 100 SE5       29.59S FOG     WCI  30
LADYSMITH      CLOUDY    36  35  97 SE5       29.61S FOG     WCI  32
EAU CLAIRE     CLOUDY    35  34  96 SE8       29.59S FOG     WCI  29
MENOMONIE        N/A    N/A N/A N/A MISG        N/A
NEW RICHMOND   FOG       34  34 100 SE5       29.58R VSB 1   WCI  30
OSCEOLA        CLOUDY    35  35 100 SE8       29.60S FOG     WCI  29
$$

WIZ003>005-009-010-017-018-210300-
NORTH CENTRAL WISCONSIN

CITY           SKY/WX    TMP DP  RH WIND       PRES   REMARKS
MANITOWISH WTR CLOUDY    32  32 100 CALM      29.60F
ARBOR VITAE    CLOUDY    37  36  96 SE3       29.61S
WOODRUFF       CLOUDY    37  36  96 SE3       29.61S
RHINELANDER    CLOUDY    34  34 100 SE5       29.62S FOG     WCI  30
EAGLE RIVER    CLOUDY    33  33 100 CALM      29.61S
LAND O LAKES   CLOUDY    34  34 100 CALM      29.63S
PHILLIPS       CLOUDY    33  33 100 SE3       29.59F
TOMAHAWK       CLOUDY    33  32  96 CALM      29.62S FOG
MEDFORD        CLOUDY    33  32  99 SE6       29.60F FOG     WCI  27
MERRILL        CLOUDY    33  33 100 SE5         N/A  FOG     WCI  29
$$

WIZ029-030-035-036-043>047-210300-
CENTRAL WISCONSIN

CITY           SKY/WX    TMP DP  RH WIND       PRES   REMARKS
WAUSAU         CLOUDY    33  33 100 SE7       29.62S WCI  27
MOSINEE        CLOUDY    34  34 100 E6        29.63F FOG     WCI  29
MARSHFIELD     FOG       33  32  96 SE8       29.60S VSB 1   WCI  26
STEVENS POINT  CLOUDY    32  32 100 E7        29.64S FOG     WCI  26
WAUPACA        CLOUDY    36  34  93 CALM      29.66R FOG
WAUTOMA        CLOUDY    35  34  96 E3        29.65S FOG
WISC RAPIDS    CLOUDY    35  35 100 SE6       29.64S FOG     WCI  30
CAMP DOUGLAS   CLOUDY    36  34  93 SE6       29.62S FOG     WCI  31
$$

WIZ011>013-019>022-031-037>040-048>050-210300-
NORTHEAST WISCONSIN

CITY           SKY/WX    TMP DP  RH WIND       PRES   REMARKS
ANTIGO         CLOUDY    32  32 100 SE6       29.63F FOG     WCI  26
SHAWANO        CLOUDY    35  33  94 E6        29.66F FOG     WCI  30
OCONTO         CLOUDY    32  32  99 CALM      29.68F
STURGEON BAY   FOG       34  33  96 NE5       29.68F VSB 1/2 WCI  30
GREEN BAY      CLOUDY    35  34  96 NE5       29.67F FOG     WCI  31
MANITOWOC      CLOUDY    36  34  92 MISG      29.68F FOG
APPLETON       CLOUDY    34  34 100 E5        29.64F FOG     WCI  30
CLINTONVILLE   CLOUDY    34  34 100 E5        29.66S FOG     WCI  30
OSHKOSH        CLOUDY    34  33  96 E3        29.65F FOG
$$

WIZ032>034-041-042-053>061-210300-
SOUTHWEST WISCONSIN

CITY           SKY/WX    TMP DP  RH WIND       PRES   REMARKS
LA CROSSE      CLOUDY    39  36  89 SE6       29.61R WCI  35
SPARTA         CLOUDY    34  34 100 CALM      29.62S
VIROQUA        CLOUDY    34  34 100 SE8       29.59S VSB 1/4 WCI  28
BOSCOBEL       FOG       37  36  96 NE5       29.62F VSB 1/2 WCI  33
PRAIRIE DU CHI CLOUDY    37  36  96 E6        29.59F FOG     WCI  32
PLATTEVILLE    CLOUDY    36  36 100 E7        29.60F VSB 1/4 WCI  30
$$

WIZ056-057-062-063-064-067-068-210300-
SOUTH CENTRAL WISCONSIN

CITY           SKY/WX    TMP DP  RH WIND       PRES   REMARKS
REEDSBURG      FOG       35  35 100 CALM      29.62S VSB 3/4
BARABOO/DELLS  CLOUDY    35  35  99 SE5       29.62S FOG     WCI  31
LONE ROCK      MIX PCPN  36  35  96 E7        29.63S VSB 1/4 WCI  30
MINERAL POINT  SNOW      37  37 100 E7        29.60F VSB 1/4 WCI  32
MADISON        FOG       36  36 100 SE5       29.64S VSB 1/2 WCI  32
MIDDLETON      CLOUDY    37  37 100 SE6       29.64S VSB 1/2 WCI  33
WATERTOWN      CLOUDY    36  36 100 E3        29.64S FOG
MONROE         FOG       36  36 100 E5        29.61F VSB<1/4 WCI  32
JANESVILLE     FOG       37  37 100 E8        29.64S VSB 1/4 WCI  31
$$

WIZ051-052-058>065-066-070>072-210300-
SOUTHEAST WISCONSIN

CITY           SKY/WX    TMP DP  RH WIND       PRES   REMARKS
MILWAUKEE      FOG       37  35  92 SE6       29.67S VSB 1/4 WCI  32
WAUKESHA       FOG       34  34 100 E5        29.65F VSB 1   WCI  30
MILWAUKEE/TIMM   N/A     36  34  93 CALM      29.66F FOG
RACINE         FOG       37  35  92 SE5       29.68S VSB 1/4 WCI  33
KENOSHA        FOG       37  36  96 E3        29.66S VSB 1/4
FOND DU LAC    CLOUDY    36  33  89 E5        29.65F FOG     WCI  32
SHEBOYGAN      CLOUDY    35  34  96 VRB3      29.66F FOG
WEST BEND      FOG       34  34 100 CALM      29.65S VSB 1/4
JUNEAU         FOG       34  34  99 E6        29.65S VSB 1/2 WCI  29
$$

LSZ147-162-210300-
LAKE SUPERIOR

STATION/POSITION TIME  TEMP    WIND        PRES    WAVE
                       AIR SEA DIR/SP/G            HT/PER
                 (UTC) (F)     (DEG/KT/KT) (MB)    (FT/S)
DEVILS ISLAND    0100   34      90/  6/  6 1004.7R
PORT WING        0030   33      50/  3/  5 1003.7R
SAXON HARBOR     0030   34        CALM     1003.4S
$$

LMZ867-665-643>646-210300-
LAKE MICHIGAN

STATION/POSITION TIME  TEMP    WIND        PRES    WAVE
                       AIR SEA DIR/SP/G            HT/PER
                 (UTC) (F)     (DEG/KT/KT) (MB)    (FT/S)
NORTHPORT PIER   0040   33      30/  2/  8 1005.1F
SISTER BAY       0120   33        CALM       N/A
KEWAUNEE LAKESHO 0148   35      30/  2/  5 1004.6F
SHEBOYGAN LAKESH 0100   35     160/  3/  3 1005.3F
PORT WASHINGTON  0030   36     160/  4/  5 1006.1S
KENOSHA   LAKESH 0100   35      90/  4/  5 1005.1
$$

TC  - TEMPERATURE IN CELSIUS
VSB - VISIBILITY IN STATUTE MILES
WCI - WIND CHILL INDEX
HX  - HEAT INDEX





USA.gov is the U.S. government's official web portal to all federal, state and local government web resources and services.